Regional Weather Roundup
Issued by NWS Charleston, SC

Current Version | Previous Version | Graphics & Text | Print | Product List | Glossary On
Versions: 1 2 3 4 5 6 7 8 9 10 11 12 13 14 15 16 17 18 19 20 21 22 23 24 25 26 27 28 29 30 31 32 33 34 35 36 37 38 39 40 41 42 43 44 45 46 47 48 49 50
000
ASUS42 KCHS 280125
RWRCHS

REGIONAL WEATHER ROUNDUP
NATIONAL WEATHER SERVICE CHARLESTON SC
800 PM EST SAT DEC 27 2014

NOTE: "FAIR" INDICATES FEW OR NO CLOUDS BELOW 12,000 FEET WITH NO
SIGNIFICANT WEATHER AND/OR OBSTRUCTIONS TO VISIBILITY.

NOT ALL STATIONS ARE QUALITY CONTROLLED BY THE NATIONAL
WEATHER SERVICE. USE DATA WITH CAUTION...ESPECIALLY
DEWPOINT OBSERVATIONS.

SCZ027-030-031-034>040-042>050-280200-
...SOUTHEAST SOUTH CAROLINA...

CITY           SKY/WX    TMP DP  RH WIND       PRES   REMARKS
N CHARLESTON   MOCLDY    57  47  69 SE3       30.26S
WATERFRONT PRK   N/A     55 N/A N/A CALM        N/A
MOUNT PLEASANT FAIR      52  52 100 CALM      30.26R
PINOPOLIS        N/A     61  54  77 VRB2      30.16S
MONCKS CORNER  FAIR      55  50  82 CALM      30.26R
SUMMERVILLE    FAIR      54  52  94 SE3       30.27S
BEAUFORT MCAS  MOCLDY    54  48  80 CALM      30.26S
BEAUFORT ARPT  FAIR      52  50  93 CALM      30.25S
HILTON HEAD IS PTCLDY    52  50  93 NE3       30.26F
WALTERBORO     MOCLDY    55 N/A N/A CALM      30.27R
ALLENDALE      FAIR      55  54  94 CALM      30.25S

...SOUTHERN MIDLANDS AND PEE DEE...

CITY           SKY/WX    TMP DP  RH WIND       PRES   REMARKS
GEORGETOWN     NOT AVBL
KINGSTREE      NOT AVBL
ORANGEBURG     PTCLDY    52  48  86 CALM      30.26R
BARNWELL         N/A     52  50  93 CALM      30.26S
AIKEN          FAIR      50  43  76 CALM      30.28S
MANNING        FAIR      50 N/A N/A CALM      30.26R
COLUMBIA       PTCLDY    48  43  82 CALM      30.24S
SUMTER         CLEAR     49  45  87 SW2       30.23R
FLORENCE       PTCLDY    50  44  80 CALM      30.25S
MYRTLE BEACH   CLEAR     52  46  82 CALM      30.28S
N MYRTLE BEACH MOCLDY    50  46  86 CALM      30.26S

$$

GAZ063-065-086>088-099>101-113>116-118-119-134>141-150-280200-
...SOUTHEAST GEORGIA...

CITY           SKY/WX    TMP DP  RH WIND       PRES   REMARKS
SAVANNAH ARPT  CLEAR     55  49  80 SE3       30.25F
HUNTER AAF     CLEAR     53  50  87 E2        30.24S
FORT STEWART   CLEAR     55  52  91 CALM      30.24F
STATESBORO     PTCLDY    53  53 100 CALM      30.26R
SYLVANIA       PTCLDY    55  55  97 CALM      30.28R
CLAXTON        FAIR      55  54  94 CALM      30.26R

...CSRA...CENTRAL AND FAR SOUTHEAST GEORGIA...

CITY           SKY/WX    TMP DP  RH WIND       PRES   REMARKS
THOMSON        MOCLDY    53  50  91 CALM      30.29F
AUGUSTA-BUSH   MOCLDY    51  45  79 CALM      30.26R
AUGUSTA-DANIEL MOCLDY    58  43  57 CALM      30.26S
SWAINSBORO     MOCLDY    59  59 100 CALM      30.26F
VIDALIA        CLOUDY    59  55  88 CALM      30.25S
EASTMAN        HVY RAIN  61  58  92 E5        30.27F
HAZLEHURST     MOCLDY    62  60  94 CALM      30.25R
ALMA           PTCLDY    62  57  83 E5        30.24R
WAYCROSS       MOCLDY    65  62  89 E3        30.25R
JESUP          FAIR      59  55  88 CALM      30.25S
BAXLEY         CLOUDY    64  57  77 CALM      30.25R
BRUNSWICK      CLEAR     55  52  88 CALM      30.26S
SAINT SIMONS   CLEAR     58  55  90 N3        30.25R

$$

SCZ027-028-034-036>038-045-046-048>050-GAZ119-141-280200-
...LAKE AND SUPPLEMENTAL COASTAL OBSERVATIONS...

STATION/POSITION TIME  TEMP    WIND        PRES    WAVE   SWELL
                       AIR SEA DIR/SP/G            HT/PER HT/PER/DIR
                 (UTC) (F)     (DEG/KT/KT) (MB)    (FT/S) (FT/S/D)
UPR LAKE MARION  NOT AVBL
WINYAH BAY       0100   52        CALM     1024.0R
LAKE MURRAY      0100   51        CALM     1023.4S
ACE BASIN NERRS  0100   53        CALM     1024.0S
FORT PULASKI     0100   57 56   20/  3/  3 1025.0R
SAPELO ISLAND    0100   55      30/  6     1024.0S

$$

ANZ835-935-AMZ111-154-330-350-352-354-370-450-454-472-280200-
...C-MAN AND BUOY OBSERVATIONS...

STATION/POSITION TIME  TEMP    WIND        PRES    WAVE   SWELL
                       AIR SEA DIR/SP/G            HT/PER HT/PER/DIR
                 (UTC) (F)     (DEG/KT/KT) (MB)    (FT/S) (FT/S/D)
BUOY 41004       0100   70 74   80/ 10/ 12 1023.5F   2/ 8   2/ 8
BUOY 41008       0100   60 59   30/  6/  6 1024.2R   2/17   2/110/17
FOLLY BEACH CMAN 0100   56      20/  4/  4 1025.1R
CAPERS NEARSHORE 0000   57      80/  8/  8   N/A
FRIPP NEARSHORE  NOT AVBL


STATION/POSITION TIME  TEMP    WIND        PRES    WAVE   SWELL
                       AIR SEA DIR/SP/G            HT/PER HT/PER/DIR
                 (UTC) (F)     (DEG/KT/KT) (MB)    (FT/S) (FT/S/D)
5E ST. MARYS GA  0100      61                N/A     2/12   2/ 90/12
FRYING PAN BUOY  0100   64 69   80/  6/  8 1025.4F   3/16   3/120/16
BUOY 41025       0100   64                 1025.0F   4/15
CAPE LOOKOUT NC  0100   56     170/  4/  5 1024.7S
BUOY 41002       0021   69 74  140/  8/ 10 1025.7R   5/15   5/ 70/15
BUOY 41010       0100   75 77  100/ 12/ 14 1022.8R   4/16   3/ 60/16
ST AUGUSTINE FL  0100   63     340/ 10/ 10 1023.7R


$$



USA.gov is the U.S. government's official web portal to all federal, state and local government web resources and services.